Location: Goettingen
(51.5300°N, 9.9433°E)
Time: 10:18:08
(UTC+02:00)

ISS - Pass Details

Date: 26 May 2018
Orbit: 402 x 407 km, 51.6° (Epoch: 23 May)

Event Time Altitude Azimuth Distance (km) Brightness Sun altitude
Rises 01:11:47 0° 282° (WNW) 2,322 0.2 -17.4°
Reaches altitude 10° 01:13:53 10° 279° (W) 1,460 -0.9 -17.4°
Maximum altitude 01:17:07 59° 199° (SSW) 469 -3.9 -17.4°
Enters shadow 01:17:17 58° 181° (S) 474 -3.9 -17.4°
